Theta_e
313 313 313 313 313 313 314 314 314 315 316 316 317 317 317 317 317 306 298 304 311 322 322 308 303 302 301 300 307 306 295 297 299 302 302 309 305 311 313 310 311 311 312 319 334
313 313 313 314 314 313 313 314 314 315 315 316 316 316 317 317 309 303 311 318 325 323 303 300 297 300 294 298 301 300 294 297 306 308 307 309 307 308 308 308 309 312 315 317 329
313 313 313 313 313 313 313 313 313 314 315 315 316 316 316 316 302 304 324 323 326 322 307 303 301 299 291 295 297 297 295 302 303 305 306 305 306 308 305 303 307 309 312 315 318
312 312 313 312 312 312 313 313 313 314 314 314 315 316 317 309 291 306 327 329 327 316 307 302 298 291 290 291 295 292 297 299 301 304 304 302 306 305 306 306 311 311 312 313 313
312 311 311 311 312 312 311 312 313 313 313 314 315 317 309 302 304 314 330 329 321 314 306 302 296 292 287 290 293 291 295 298 299 299 299 303 302 303 303 308 310 311 312 312 313
313 313 313 313 312 312 311 311 312 312 313 314 316 317 305 295 310 314 317 317 318 310 305 303 297 296 292 291 290 293 294 295 296 296 298 298 299 301 303 307 307 308 308 310 312
312 312 313 312 312 311 312 312 312 312 313 314 316 314 301 294 310 310 314 309 308 309 303 302 300 296 294 291 293 293 289 292 294 296 296 300 295 297 303 305 305 305 307 308 310
312 312 312 312 311 311 312 312 312 313 314 315 317 308 295 309 310 305 303 304 303 307 304 304 300 295 293 292 293 289 288 283 291 295 296 297 291 299 301 301 301 303 304 306 307
312 312 312 311 311 311 311 311 312 314 315 315 307 302 300 314 304 306 301 300 301 302 301 305 299 294 294 287 285 285 281 284 289 294 293 294 288 295 299 298 298 299 300 302 303
312 312 311 312 311 311 311 311 311 312 314 315 311 299 302 302 304 303 302 302 300 299 298 296 291 288 286 285 279 282 283 285 286 291 293 291 290 294 297 297 297 298 298 300 301
312 312 311 311 311 311 306 300 295 295 303 297 302 302 306 307 305 301 304 301 300 295 288 291 285 282 286 288 289 288 286 285 288 292 289 289 290 292 295 295 295 296 297 298 300
311 312 311 311 312 311 302 299 300 298 293 300 300 303 307 306 298 300 303 295 293 287 289 287 282 289 291 290 289 287 284 284 288 292 290 289 289 293 293 294 295 295 296 297 298
310 311 310 311 310 303 298 301 305 299 290 296 301 300 300 301 296 297 300 296 291 287 286 284 288 292 291 289 288 286 286 286 286 291 290 288 286 289 293 294 295 296 296 297 297
310 310 309 310 301 298 299 304 303 300 287 294 295 299 299 296 294 302 302 297 290 287 287 286 290 290 288 287 289 284 291 290 288 285 279 288 278 286 289 291 293 294 294 295 296
309 310 309 309 298 299 304 303 301 301 276 296 294 301 297 293 296 298 301 295 290 289 288 287 288 287 286 289 292 287 292 288 288 284 281 283 279 284 289 288 290 293 294 295 298
309 309 309 304 299 303 304 301 301 286 279 291 295 294 292 294 295 297 296 297 295 289 289 288 292 290 290 293 293 293 288 286 284 281 275 282 281 281 283 286 289 293 296 300 301
308 308 306 306 299 301 302 299 286 280 293 289 289 291 290 291 293 294 292 289 286 282 282 287 287 293 295 288 290 287 281 273 273 274 275 283 280 282 288 292 292 295 298 299 300
307 306 306 306 301 303 298 292 282 289 287 293 291 290 288 291 291 292 289 286 292 288 284 281 279 289 293 289 285 284 282 275 272 273 275 283 277 282 290 296 298 299 298 299 299
305 300 302 306 307 299 294 284 282 287 291 290 290 287 287 291 289 289 287 288 291 289 282 281 282 292 293 292 289 283 280 284 278 279 275 279 283 288 292 295 296 296 298 297 298
296 299 301 306 302 299 290 288 290 296 294 292 285 289 284 286 286 286 286 292 291 293 291 287 280 289 292 292 290 286 288 279 278 274 272 277 279 281 287 290 293 294 295 295 298
298 296 303 301 303 295 284 288 294 297 296 291 288 287 287 286 286 285 287 291 294 292 292 288 284 285 288 285 283 283 281 282 281 277 272 272 278 288 289 292 292 294 296 296 298
294 290 303 301 291 287 286 291 296 295 297 294 292 291 288 288 286 286 286 290 296 294 288 289 284 280 283 290 291 287 284 284 276 275 280 281 280 292 290 293 293 294 296 298 299
293 293 302 299 284 283 288 291 294 294 294 292 290 291 290 286 282 288 290 295 294 293 290 289 282 279 280 283 287 285 287 287 286 283 281 278 279 292 292 293 295 294 296 299 301
292 288 291 292 290 286 286 288 290 296 294 294 292 291 288 286 287 286 289 294 295 293 300 295 284 283 279 281 282 283 287 289 288 282 281 282 283 288 290 292 295 296 297 301 302
290 286 288 282 285 285 287 288 288 288 292 292 289 289 287 282 284 284 288 289 293 295 292 291 282 284 286 288 288 287 287 288 286 287 283 285 285 289 291 292 294 296 299 300 302
288 286 288 285 287 287 287 286 287 289 289 287 285 289 287 283 285 283 285 286 286 290 287 287 282 285 284 288 288 286 288 288 288 289 289 289 287 294 294 294 294 296 298 298 303
293 292 288 285 285 283 283 287 287 289 290 291 289 286 285 288 291 291 291 291 291 288 285 285 283 280 279 286 285 281 286 288 290 291 289 285 289 293 292 293 293 294 296 297 298
Wind_Speed
17 17 17 17 17 16 16 16 15 15 14 14 14 15 15 16 16 3 7 11 7 5 2 7 3 4 0 3 3 2 2 8 8 7 2 8 4 2 3 6 6 4 4 9 5
18 18 18 18 18 17 17 16 16 15 14 14 15 15 15 15 7 7 11 8 10 2 2 3 4 0 2 4 3 4 5 9 5 8 11 16 6 13 8 13 8 12 14 12 9
19 19 19 20 19 18 17 17 16 15 15 15 15 16 15 10 4 6 6 10 6 4 3 2 3 2 2 2 4 5 6 3 2 1 3 13 11 10 9 16 2 11 14 14 2
20 20 20 20 20 19 19 18 17 16 15 15 15 14 14 2 2 4 6 9 7 4 2 3 2 2 4 5 4 4 4 2 2 5 5 11 14 15 15 22 7 7 9 7 8
19 19 20 20 20 21 19 18 17 16 15 15 14 11 5 3 8 7 5 7 5 3 4 3 1 1 2 2 4 3 4 5 6 7 7 10 16 17 28 19 7 8 7 10 10
19 20 21 21 21 21 19 19 17 16 14 13 12 6 2 3 4 3 5 5 5 5 3 5 5 7 3 2 1 2 2 6 5 5 5 9 11 8 25 9 11 8 9 9 10
22 22 22 23 23 22 20 17 15 16 14 11 9 2 1 11 4 7 8 6 5 7 4 6 4 2 4 4 1 3 4 5 5 6 8 6 13 18 16 14 13 12 8 7 10
23 24 24 24 24 23 21 20 18 17 14 10 6 2 7 5 4 7 3 5 7 7 5 8 3 2 3 2 7 4 4 3 6 2 6 10 18 4 7 7 13 10 9 8 9
23 24 24 24 24 23 23 21 19 13 7 4 2 2 9 10 2 7 6 3 4 3 4 1 4 2 5 4 6 6 1 2 7 3 4 7 3 5 7 6 9 11 9 11 10
24 22 24 22 23 23 23 20 8 1 2 5 4 2 5 4 5 3 3 4 3 3 6 5 5 2 4 5 2 3 3 4 5 6 4 11 8 6 7 5 8 7 8 12 12
25 23 24 23 23 20 12 4 6 4 3 5 4 4 6 6 7 3 3 1 2 6 3 2 4 3 6 8 7 3 3 4 5 6 7 11 17 9 7 5 7 7 8 10 11
26 25 25 23 21 18 1 3 3 5 8 8 8 7 10 1 5 6 3 3 2 2 3 6 2 6 4 3 4 2 3 2 4 4 5 10 23 15 5 6 5 7 8 9 11
24 25 26 23 23 2 0 4 7 2 2 8 4 4 6 9 6 7 4 1 1 2 1 3 7 5 1 5 3 1 3 2 3 6 5 6 16 8 2 3 6 6 6 8 9
24 23 25 25 3 4 3 4 8 2 4 4 2 5 2 2 4 7 7 6 1 6 2 4 4 2 5 3 0 3 2 2 6 6 5 5 18 8 6 8 5 9 8 10 11
25 25 22 11 2 1 3 7 4 5 4 3 0 3 2 4 2 4 4 4 7 7 5 9 4 5 3 1 1 4 3 3 2 4 4 2 5 13 15 17 9 9 9 7 7
26 24 16 1 0 6 7 6 4 6 2 3 3 4 4 4 4 5 3 3 1 4 3 8 2 2 3 1 1 3 3 5 4 2 2 8 7 13 1 3 6 6 7 7 9
28 26 7 1 3 3 5 4 5 5 5 5 4 6 3 4 5 5 1 5 2 2 3 4 3 2 5 3 5 6 6 5 6 3 6 4 3 12 15 15 7 5 9 8 9
27 16 3 4 2 5 4 5 6 2 3 1 4 5 3 8 5 8 4 3 5 4 3 2 4 5 3 4 5 5 7 6 5 4 11 9 8 9 6 6 5 8 9 11 13
18 4 2 4 1 3 6 5 5 1 3 3 6 3 3 5 2 7 5 3 2 2 3 2 5 4 6 3 5 2 4 6 4 4 2 6 10 10 16 7 7 7 8 13 12
2 4 4 5 4 5 6 2 2 2 4 1 1 1 3 2 1 4 3 4 5 4 5 3 5 6 3 3 3 7 4 1 2 3 5 6 8 12 10 15 7 11 13 12 12
4 4 4 6 4 6 4 4 4 5 5 5 5 4 5 2 2 2 6 6 5 3 4 4 5 4 1 5 7 3 1 3 2 5 4 4 7 5 10 10 9 12 13 11 14
3 3 5 3 6 1 0 2 5 5 4 4 5 6 5 4 4 4 6 5 5 6 5 5 5 4 9 13 8 4 6 6 5 6 4 4 20 9 8 8 9 13 12 11 10
2 3 4 5 3 3 6 6 4 3 4 4 3 1 2 3 2 5 4 4 5 5 6 6 1 4 8 5 4 3 4 4 2 2 14 10 13 5 11 14 12 14 9 10 11
3 4 6 6 1 3 4 5 5 5 1 2 4 1 4 3 4 5 4 4 2 1 11 6 5 7 7 9 3 10 12 14 13 6 8 15 30 18 11 10 12 13 7 7 15
4 0 2 5 3 2 3 3 3 5 5 6 4 2 4 4 4 6 5 6 8 8 5 8 7 7 10 14 13 18 19 18 17 21 16 18 19 24 8 8 8 7 9 13 12
3 4 4 3 4 5 1 0 3 3 3 5 2 7 6 6 8 8 6 5 9 6 4 2 5 5 5 10 16 19 17 17 18 14 9 11 18 13 8 7 7 8 10 13 11
3 1 3 3 3 2 4 1 3 8 7 4 4 5 6 9 5 13 13 14 14 8 7 6 4 2 17 11 10 12 14 7 5 6 5 9 11 6 12 12 11 11 12 14 14
Wind_Direction
344 341 339 336 334 331 328 326 324 322 322 321 319 316 317 317 318 302 231 222 183 224 260 296 288 253 221 240 214 103 127 221 232 248 279 299 313 164 298 303 320 309 300 306 116
345 342 339 337 334 331 328 325 322 321 320 318 315 313 316 321 314 254 244 227 230 132 279 268 296 347 190 214 217 170 195 209 209 237 313 296 313 320 338 327 315 332 345 8 62
343 342 338 336 334 331 327 324 321 320 318 317 314 315 313 317 305 259 207 207 193 162 248 309 292 274 214 198 212 203 229 149 248 254 275 283 298 303 315 292 336 313 319 330 342
342 339 337 335 332 330 327 324 320 318 317 315 315 318 316 174 102 275 187 173 168 148 239 202 204 176 198 212 235 260 247 244 280 283 267 271 298 284 279 264 288 277 290 292 295
338 336 333 331 329 327 324 320 317 314 312 311 315 323 339 334 253 255 198 151 146 176 229 190 145 172 226 273 330 222 276 292 304 278 268 278 275 282 272 271 277 284 268 271 261
335 333 331 328 326 324 320 315 312 308 304 305 310 327 337 304 249 302 128 136 213 196 218 181 199 206 157 271 188 294 252 280 273 265 244 252 264 255 274 328 297 275 265 253 249
337 334 333 331 327 324 318 310 306 301 295 293 302 257 316 238 346 345 156 196 214 199 232 201 203 87 150 301 221 282 325 326 228 219 223 230 262 246 273 303 288 283 283 278 262
337 335 334 333 329 325 319 312 303 293 286 278 268 230 251 243 276 305 147 272 245 201 221 272 224 125 132 268 5 9 49 9 283 238 252 178 252 306 355 348 314 334 339 314 290
335 335 334 333 331 327 319 308 300 289 264 200 170 184 275 306 235 251 191 239 304 262 226 221 105 139 17 52 6 13 346 281 301 284 268 186 313 332 317 333 311 320 328 323 314
334 330 336 333 331 327 321 308 290 297 163 167 239 331 278 288 251 267 227 237 259 325 360 59 48 108 39 71 255 290 325 298 283 307 309 294 272 260 274 271 286 303 312 315 315
332 330 336 334 329 327 338 17 20 3 185 217 196 250 276 305 304 263 264 319 52 51 15 344 74 198 243 209 226 233 220 230 275 323 343 295 301 305 271 266 285 291 303 303 301
331 330 333 331 326 324 127 66 217 222 307 248 235 239 259 103 304 284 112 159 82 300 358 14 278 225 270 261 211 184 193 271 277 310 322 307 296 298 266 255 255 292 302 295 307
329 329 333 328 323 72 2 259 316 343 38 298 209 197 223 147 223 258 157 179 158 287 93 168 250 301 328 331 355 221 125 283 262 304 259 298 281 249 301 297 294 284 289 295 282
327 329 332 328 36 318 288 324 321 143 59 276 252 274 143 157 268 224 187 160 198 209 231 247 278 320 351 312 105 304 23 31 344 20 304 64 292 259 231 263 297 295 269 271 280
326 329 330 321 248 45 275 331 305 63 56 181 271 255 24 176 277 268 171 97 215 204 114 248 263 302 310 197 285 241 353 337 286 298 302 167 275 260 317 291 262 262 290 315 320
328 327 330 112 261 246 318 322 62 49 30 26 41 326 1 266 263 282 181 85 143 171 231 253 228 145 150 333 14 26 350 3 21 59 299 219 204 299 175 332 319 297 294 287 291
331 327 306 169 239 343 329 49 46 86 328 12 327 329 1 309 1 8 218 36 62 352 341 342 358 35 78 9 352 57 53 338 341 349 236 298 302 263 301 298 284 279 292 279 266
330 328 224 234 305 1 44 54 77 21 354 22 307 313 84 8 356 351 69 106 29 61 66 159 308 187 182 159 228 255 158 162 261 235 284 293 245 254 233 227 239 247 265 281 282
327 342 326 278 226 72 67 58 171 233 250 296 322 42 340 351 77 24 350 154 123 104 145 238 264 273 295 267 130 245 189 206 212 250 252 228 267 285 275 241 281 280 287 276 297
26 353 288 310 75 59 72 219 235 313 333 151 97 289 298 273 48 19 277 210 167 178 144 216 278 251 281 10 272 167 182 230 15 269 256 271 263 247 294 284 284 306 295 304 304
28 39 276 342 63 46 110 248 286 313 314 188 212 244 252 245 237 253 248 306 167 164 142 161 166 278 14 210 206 269 281 88 149 153 217 294 253 225 254 276 268 280 285 295 291
4 31 315 34 47 28 346 281 282 286 321 267 184 204 214 232 242 231 234 231 193 172 186 198 160 245 239 268 234 184 210 167 140 270 235 275 274 248 258 259 257 268 277 287 283
16 278 317 68 88 331 312 295 266 304 352 320 297 323 354 257 274 225 225 262 328 174 179 179 209 308 324 358 354 136 189 182 199 318 252 258 267 306 321 313 285 277 281 296 320
52 0 329 32 37 87 342 278 311 314 251 327 268 38 11 271 222 279 269 281 26 227 296 187 171 182 237 249 226 290 274 265 254 247 269 236 274 271 283 298 311 305 287 323 354
26 358 173 305 328 351 259 273 284 320 341 337 301 47 277 263 268 247 249 297 279 268 277 160 206 207 239 256 267 263 265 267 261 259 249 277 265 278 260 272 301 312 328 342 322
57 19 354 287 304 325 286 225 298 332 278 278 300 300 297 233 224 282 281 237 246 270 208 180 260 199 254 249 249 268 271 262 266 268 252 274 280 277 278 285 298 315 320 306 301
331 359 102 277 322 341 242 52 323 322 279 256 303 306 265 262 272 278 254 252 245 223 202 176 161 77 280 255 263 268 249 218 236 235 212 259 268 291 307 314 318 321 307 304 325